Location: Pinawa
(50.1500°N, 95.8830°W)
Time: 20:56:55
(UTC-05:00)

Daily predictions for brighter satellites

Satellite Brightness Start Highest point End
(mag) Time Altitude Azimuth Time Altitude Azimuth Time Altitude Azimuth
SeaSat 1 4.4 20:39:33 10° NNE 20:43:58 33° NW 20:48:21 10° WSW
Cosmos 1980 Rocket 3.6 20:40:30 10° SE 20:44:04 17° E 20:47:39 10° ENE
Cosmos 2369 3.8 20:38:59 10° S 20:44:32 58° ESE 20:50:09 10° NE
Resurs 1-3 4.4 20:40:49 10° S 20:45:08 55° W 20:49:28 10° NNW
EO 1 Delta rocket 4.1 20:41:39 10° NNE 20:46:14 54° E 20:51:22 10° S
NOSS 2-1 (D) 3.8 20:43:56 10° SW 20:47:56 75° NW 20:52:48 10° NE
NOSS 2-1 (C) 3.8 20:44:58 10° SW 20:48:58 75° NW 20:53:49 10° NE
Cosmos 2150 Rocket 4.0 20:44:32 10° NNW 20:49:41 66° ENE 20:54:49 10° SSE
Cosmos 1975 3.2 20:47:49 10° SSE 20:51:44 45° E 20:55:40 10° NNE
Lacrosse 5 rocket 3.1 20:49:44 10° WNW 20:52:48 24° SW 20:55:46 10° S
BREEZE-M TANK 4.4 20:36:40 10° W 20:53:45 56° SSW 20:57:55 10° SE
SPOT 5 4.1 20:50:06 10° ESE 20:54:00 24° ENE 20:57:47 10° N
ERS-1 Rocket 3.4 20:50:06 10° SE 20:54:52 46° ENE 20:59:41 10° N
Helios 1B rocket 3.6 20:55:03 10° N 20:59:04 49° WNW 21:03:02 10° SW
FENGYUN 3A 4.0 20:56:04 10° S 21:01:23 71° WSW 21:06:46 10° NNW
Cosmos 1656 3.9 20:58:21 10° S 21:03:43 48° ESE 21:09:01 10° NE
Cosmos 2263 Rocket 3.8 21:00:13 10° N 21:04:26 21° NE 21:08:38 10° E
NOSS 2-1 (E) 4.2 21:01:03 10° WSW 21:05:06 62° NW 21:10:07 10° NE
Cosmos 1898 Rocket 3.6 21:00:26 10° NNW 21:05:48 90° WSW 21:11:05 10° SSE
CZ-2D R/B 3.9 21:02:00 10° S 21:05:50 59° W 21:09:42 10° NNW
SJ-11-01 4.4 21:02:52 10° SSE 21:07:29 61° ENE 21:12:07 10° N
Cosmos 2227 Rocket 3.6 21:03:20 10° NW 21:08:35 39° WSW 21:13:47 10° S
Cosmos 1934 Rocket 4.4 21:02:54 10° SSW 21:09:02 70° WNW 21:15:20 10° N
Resurs 01 Rocket 3.9 21:06:04 10° SSW 21:09:48 26° W 21:13:35 10° NW
CZ-4 DEB 2.8 21:07:55 10° SSE 21:11:01 59° ENE 21:14:08 10° N
Cosmos 1500 3.4 21:09:12 10° SSE 21:12:49 47° E 21:16:29 10° NNE
Cosmos 1153 Rocket 4.4 21:09:36 10° S 21:15:44 71° E 21:21:52 10° NNE
Cosmos 1340 3.2 21:13:41 10° N 21:17:18 40° ENE 21:20:21 13° SE
Cosmos 2322 Rocket 3.8 21:16:55 12° ESE 21:17:43 12° E 21:19:57 10° ENE
YAOGAN 6 4.0 21:16:14 14° ESE 21:18:25 23° ENE 21:21:25 10° NNE
Terra 4.0 21:17:09 10° ENE 21:18:35 11° NE 21:20:01 10° NE
Meteor 1-12 Rocket 4.3 21:15:42 10° S 21:21:29 90° SSE 21:27:25 10° NNE
Meteor 1-21 4.5 21:17:50 10° N 21:23:32 55° ENE 21:29:03 11° SSE
Cosmos 2297 Rocket 3.4 21:18:24 10° NW 21:23:41 41° WSW 21:28:56 10° S
Cosmos 468 Rocket 4.1 21:18:51 10° S 21:23:49 53° ESE 21:28:49 10° NNE
USA 215 3.7 21:18:59 10° E 21:25:21 58° NNE 21:31:45 10° WNW
ALOS 3.8 21:24:49 10° SSW 21:29:08 36° W 21:33:29 10° NNW
Cosmos 1939 Rocket 2.9 21:25:07 10° SSE 21:29:15 73° ENE 21:33:26 10° N
USA 186 3.5 21:26:44 10° SSW 21:29:24 29° W 21:31:55 10° NW
Cosmos 841 Rocket 4.3 21:25:29 10° SSE 21:29:54 28° E 21:34:18 10° NE
Cosmos 1515 4.5 21:28:17 10° NNW 21:32:03 53° W 21:35:48 10° S
Cosmos 1802 Rocket 4.3 21:25:56 10° SSE 21:32:05 51° E 21:38:17 10° NNE
Cosmos 2227 4.2 21:26:57 10° NNW 21:32:44 74° ENE 21:37:27 16° SE
Cosmos 1726 Rocket 4.3 21:30:18 15° SSE 21:33:22 32° E 21:37:17 10° NNE
Cosmos 1814 Rocket 4.1 21:30:17 10° S 21:35:29 57° ESE 21:40:42 10° NNE
Cosmos 405 Rocket 4.4 21:35:01 10° NNE 21:37:38 18° ENE 21:38:40 16° E
MetOp-A 4.4 21:33:48 16° SE 21:37:59 52° ENE 21:43:11 10° N
Cosmos 2016 Rocket 4.2 21:36:18 10° SSE 21:42:11 50° E 21:48:10 10° NNE
ASTEX 1 3.9 21:37:31 10° NNE 21:42:15 40° E 21:45:35 18° SSE
Cosmos 1825 Rocket 3.5 21:38:28 10° N 21:42:56 84° E 21:46:50 13° S
SL-24 R/B - RUBIN 2 4.4 21:42:02 10° SW 21:48:06 87° SE 21:54:48 10° NE
Tiangong 1 3.2 21:48:35 10° SW 21:50:22 14° SSW 21:50:47 14° S
RESURS DK-1 3.5 21:48:12 10° NW 21:52:05 39° WSW 21:55:34 12° S
BREEZE-M DEB (TANK) 2.7 21:50:12 10° W 21:52:17 34° SSW 21:53:28 25° SSE
Cosmos 1743 2.6 21:48:48 10° S 21:52:42 76° E 21:56:38 10° NNE
Cosmos 1953 Rocket 3.5 21:49:26 10° N 21:53:55 81° E 21:57:08 19° SSE
ATLAS CENTAUR R/B 4.4 21:50:52 10° WNW 21:54:20 19° NNW 21:57:42 10° NNE
Cosmos 2173 Rocket 4.0 21:48:01 10° S 21:54:22 80° E 22:00:42 10° NNE
H-2A R/B 2.0 21:57:54 20° SSE 22:00:43 83° WSW 22:04:54 10° NNW
Cosmos 1697 Rocket 2.7 21:58:04 10° SSW 22:03:45 85° WNW 22:09:26 10° NNE
Nimbus 7 Rocket 4.4 22:01:05 10° NNE 22:07:09 65° ESE 22:13:10 10° S
SL-08 RB Rocket 4.2 22:05:54 30° ESE 22:07:43 44° ENE 22:12:07 10° N
Cosmos 2228 3.5 22:07:20 33° ESE 22:08:13 38° E 22:12:12 10° NNE
Envisat 3.5 22:03:38 11° S 22:08:30 58° W 22:13:31 10° NNW
Cosmos 2100 Rocket 4.2 22:03:31 10° SSW 22:09:48 76° WNW 22:16:02 10° N
Cosmos 1758 Rocket 3.6 22:08:08 10° NNW 22:12:31 77° W 22:15:05 24° S
SL-16 R/B 2.9 22:13:10 30° SE 22:14:14 32° ESE 22:19:13 10° NE
Tsikada Rocket 4.0 22:08:45 10° N 22:15:13 76° E 22:19:18 24° SSE
NOAA 11 4.2 22:13:22 29° SE 22:16:13 67° ENE 22:21:40 10° N
deb Chang Zheng 4 3.5 22:13:41 10° NNE 22:18:11 85° ESE 22:21:50 15° SSW
ARGOS 3.1 22:16:23 30° SE 22:19:04 69° ENE 22:24:28 10° N
CZ-4B R/B 3.9 22:15:07 10° NNE 22:19:31 36° E 22:20:03 34° ESE
SL-19 R/B 4.4 22:14:12 10° NNE 22:19:32 48° E 22:21:42 31° SSE
Cosmos 1842 3.3 22:15:54 10° NNW 22:19:49 76° W 22:21:26 34° S
Cosmos 2061 Rocket 4.3 22:13:56 10° SSW 22:20:12 71° WNW 22:26:28 10° N
Lacrosse 5 3.7 22:17:23 10° WNW 22:21:15 22° SW 22:24:05 14° SSW
GP-B 4.3 22:18:32 10° NNE 22:22:13 25° E 22:22:13 25° E
PSLV R/B 3.1 22:22:35 63° SSW 22:22:56 75° WSW 22:26:01 10° NNW
Cosmos 1980 Rocket 2.2 22:21:35 10° SSW 22:27:17 89° WNW 22:33:02 10° NNE
Cosmos 2360 Rocket 4.0 22:30:08 15° ENE 22:30:08 15° ENE 22:32:01 10° ENE
Cosmos 1707 3.9 22:25:03 10° N 22:28:24 28° ENE 22:28:24 28° ENE
H-2A R/B 2.4 22:27:30 36° ESE 22:28:52 45° ENE 22:33:34 10° N
MetOp-B 4.4 22:28:11 23° S 22:31:32 65° WSW 22:36:53 10° NNW
SPOT 5 3.4 22:28:37 21° S 22:31:49 54° W 22:36:29 10° NNW
Cosmos 1816 Rocket 4.5 22:27:57 10° N 22:34:23 83° E 22:37:39 31° SSE
Cosmos 332 Rocket 4.2 22:35:54 42° ESE 22:35:55 42° ESE 22:40:32 10° NE
Cosmos 1666 2.8 22:35:55 37° SSW 22:37:16 72° W 22:41:05 10° N
Meteor 2-17 Rocket 4.5 22:36:22 35° SSE 22:38:47 58° E 22:44:42 10° NNE
Cosmos 371 Rocket 4.4 22:40:13 28° ENE 22:40:13 28° ENE 22:43:23 10° NE
CZ-4 SHROUD 3.7 22:39:09 51° WSW 22:39:14 51° W 22:42:17 10° NNW
Landsat 7 3.9 22:39:00 48° SE 22:40:06 63° ENE 22:44:50 10° N
Cosmos 836 Rocket 4.4 22:36:58 21° SSW 22:40:30 75° ESE 22:45:50 10° NNE
Cosmos 1725 Rocket 3.9 22:37:54 19° S 22:42:34 90° W 22:48:53 10° N
Cosmos 2058 Rocket 3.3 22:41:00 25° SSW 22:43:34 71° WNW 22:48:06 10° N
Cosmos 1763 Rocket 3.8 22:42:51 10° SW 22:47:54 65° WNW 22:52:59 10° NNE
SPOT 1/Viking Rocket 3.8 22:45:54 34° S 22:48:11 67° WSW 22:53:24 10° NNW
Cosmos 2098 Rocket 4.0 22:41:42 11° SSW 22:48:11 75° W 22:53:34 10° N
Cosmos 2263 Rocket 2.1 22:43:37 10° NNW 22:49:14 84° ENE 22:50:51 48° SE
YAOGAN 6 4.1 22:50:42 27° SW 22:51:52 33° W 22:55:17 10° NNW
Meteor 2-5 Rocket 3.8 22:47:58 10° N 22:53:56 74° ENE 22:55:38 47° SSE
Cosmos 1125 Rocket 4.1 22:49:00 10° NNW 22:54:03 50° WSW 22:55:59 33° SSW
Terra 1.8 22:54:47 56° ESE 22:55:25 62° ENE 23:00:09 10° N
CZ-4 R/B 3.7 22:53:47 10° NNE 22:58:31 64° ESE 22:58:49 62° SE
CARTOSAT-1 3.5 22:58:50 66° E 22:59:00 67° ENE 23:03:19 10° N
Meteor 1-15 Rocket 4.4 22:56:11 21° SSW 23:00:14 74° WNW 23:06:07 10° N
Cosmos 2322 Rocket 2.0 22:58:39 39° S 23:00:44 72° ESE 23:06:23 10° NNE
Cosmos 1441 Rocket 4.0 23:00:46 10° N 23:03:56 42° NE 23:03:56 42° NE
DELTA 2 DEB (DPAF) 4.0 23:05:49 76° S 23:06:11 88° W 23:10:42 10° NNW
Cosmos 2233 Rocket 3.9 23:03:44 38° S 23:06:19 87° E 23:12:37 10° N
USA 215 3.2 23:06:04 45° SE 23:08:16 77° SW 23:14:51 10° WNW
Meteor 1-24 Rocket 4.0 23:02:59 10° N 23:08:59 60° ENE 23:10:08 51° ESE
Cosmos 841 Rocket 4.3 23:06:28 10° SW 23:11:32 49° WNW 23:16:37 10° NNE
Genesis I 3.5 23:08:39 10° NW 23:12:08 66° NW 23:12:08 66° NW
Cosmos 405 Rocket 3.5 23:10:23 10° NNW 23:13:54 43° W 23:13:54 43° W
Cosmos 1812 Rocket 3.6 23:21:13 77° N 23:21:13 77° N 23:25:17 10° N
Cosmos 540 Rocket 3.4 23:22:20 62° SSW 23:23:13 86° WNW 23:28:24 10° NNE
Spot 4 3.7 23:24:04 82° E 23:24:09 83° ENE 23:28:57 10° NNW
IGS 5A 3.7 23:28:34 65° NW 23:28:34 65° NW 23:32:19 10° NNW
COSMOS 2428 4.4 23:30:56 20° ENE 23:30:56 20° ENE 23:33:19 10° NE
Cosmos 2034 Rocket 4.2 23:30:12 49° E 23:30:24 50° E 23:36:21 10° NNE
CZ-4C R/B 4.2 23:33:23 50° W 23:33:23 50° W 23:37:40 10° NNW
ATLAS CENTAUR R/B 4.5 23:32:43 10° NNW 23:35:12 14° N 23:37:35 10° NE
Cosmos 2278 Rocket 3.4 23:34:00 10° NNW 23:39:04 32° NE 23:40:20 29° ENE
DMSP B5D2-2 4.0 23:40:24 10° NNE 23:45:43 85° WNW 23:46:00 80° SW
Cosmos 1464 Rocket 3.9 23:51:41 67° S 23:52:38 90° W 23:59:02 10° N
